Location: Anton
(37.3520°N, 87.3947°W)
Time: 18:00:54
(UTC+00:00)

Hubble Space Telescope - Pass Details

Date: 12 December 2022
Orbit: 529 x 532 km, 28.5° (Epoch: 07 February)

Event Time Altitude Azimuth Distance (km) Brightness Sun altitude
Exits shadow 12:10:26 - 249° (WSW) 2,307 3.6 -8.7°
Reaches altitude 10° 12:12:08 10° 237° (WSW) 1,765 3.1 -8.4°
Maximum altitude 12:15:07 20° 190° (S) 1,269 2.8 -7.9°
Drops below altitude 10° 12:18:05 10° 143° (SE) 1,760 4.5 -7.3°
Sets 12:20:47 0° 125° (SE) 2,647 6.4 -6.8°
